Location: eljas
(40.1958°N, 6.8661°W)
Time: 18:30:21
(UTC+02:00)

Amateur Radio Satellites - All Passes

Search period start: 30 May 2015 18:00
Search period end: 31 May 2015 18:00
Location: eljas, 40.1958°N, 6.8661°W

Satellite Date Start Highest point End Downlink Frequencies (MHz)
Time Altitude Azimuth
Cosmos 2499 30 May 18:05:41 18:12:28 29° 290° (WNW) 18:18:41 435.465 / 435.565
AO-7 30 May 18:07:28 18:15:38 60° 257° (WSW) 18:23:51 29.400- 29.500
HORYU 2 30 May 18:16:11 18:19:55 25° 265° (W) 18:23:35 437.375
Cubesat XI-IV 30 May 18:23:55 18:25:59 13° 60° (ENE) 18:28:20 437.490
KKS-1 30 May 18:24:59 18:28:38 24° 292° (WNW) 18:32:11 437.445
O/OREOS (USA 219) 30 May 18:25:58 18:27:59 12° 309° (NW) 18:29:47 437.305
JAS-2 30 May 18:37:15 18:42:40 26° 265° (W) 18:47:27 435.910
BEESAT 3 30 May 18:39:55 18:43:54 56° 118° (ESE) 18:47:56 437.485
MOZHAYETS 4 30 May 18:43:43 18:48:06 45° 98° (E) 18:52:30
YUBILEINY 30 May 19:09:29 19:17:08 35° 70° (ENE) 19:24:57 435.215
Cosmos 2491 30 May 19:17:06 19:22:11 18° 79° (E) 19:27:48 435.465 / 435.565
STARS 30 May 19:22:07 19:23:13 11° 297° (WNW) 19:24:04 437.465
BEESAT 2 30 May 19:33:59 19:37:57 47° 306° (NW) 19:41:59 435.950
CUTE-I 30 May 19:38:26 19:43:38 59° 73° (ENE) 19:48:54 437.470
RS-15 30 May 19:43:05 19:54:47 81° 240° (WSW) 20:06:55 29.354- 29.394
AIST 2 30 May 19:48:03 19:52:16 68° 119° (ESE) 19:56:32 435.215
Cubesat XI-IV 30 May 20:00:06 20:05:25 87° 253° (WSW) 20:10:48 437.490
STRAND 1 30 May 20:10:35 20:12:25 12° 88° (E) 20:14:35 437.568
PRISM 30 May 20:18:46 20:20:46 14° 91° (E) 20:22:59 437.425
BEESAT 3 30 May 20:19:33 20:22:16 16° 317° (NW) 20:24:52 437.485
MOZHAYETS 4 30 May 20:21:53 20:25:02 18° 294° (WNW) 20:28:02
BRITE-PL 30 May 20:27:18 20:30:40 18° 63° (ENE) 20:34:20 437.365/2234.400
HO-68 30 May 20:28:33 20:32:31 16° 55° (NE) 20:36:48 435.675
CUBESAT XI-V 30 May 20:33:00 20:37:37 52° 99° (E) 20:42:14 437.345
DOVE 4 30 May 20:53:30 20:55:42 13° 62° (ENE) 20:58:12 437.250
YUBILEINY 30 May 21:05:59 21:14:18 51° 270° (W) 21:22:32 435.215
Cosmos 2491 30 May 21:09:11 21:18:00 88° 278° (W) 21:26:55 435.465 / 435.565
CUTE-I 30 May 21:20:44 21:24:12 17° 270° (W) 21:27:26 437.470
CANX-2 30 May 21:26:26 21:29:39 22° 69° (ENE) 21:32:57 2200.000
AIST 2 30 May 21:28:42 21:31:21 15° 318° (NW) 21:33:53 435.215
CUTE 1.7 + AOD 2 30 May 21:29:26 21:32:35 21° 69° (ENE) 21:35:51 437.475
CINEMA 3 30 May 21:39:00 21:42:07 17° 65° (ENE) 21:45:24 145.822/145.860
AIST 1 30 May 21:40:24 21:44:27 44° 93° (E) 21:48:34
Cosmos 2504 30 May 21:45:23 21:51:33 31° 71° (ENE) 21:57:52 435.465 / 435.565
SEEDS 30 May 21:45:29 21:48:57 26° 70° (ENE) 21:52:28 437.485
GOMX 1 30 May 21:45:56 21:51:04 59° 74° (ENE) 21:56:28 467.674
STRAND 1 30 May 21:47:08 21:52:18 76° 284° (WNW) 21:57:26 437.568
COMPASS 1 30 May 21:52:28 21:55:49 24° 70° (ENE) 21:59:15 437.405
PRISM 30 May 21:52:31 21:56:32 47° 287° (WNW) 22:00:33 437.425
Oscar 11 30 May 21:54:23 21:55:17 11° 64° (ENE) 21:56:25 145.826/435.025
RS-15 30 May 21:58:03 22:05:52 19° 259° (WSW) 22:12:59 29.354- 29.394
M-CUBED/EXP-1 PRIME 30 May 21:59:19 22:02:34 54° 105° (ESE) 22:05:52 437.505
AAUSAT CUBESAT 2 30 May 22:01:06 22:04:32 26° 70° (ENE) 22:08:02 437.432
BRITE-PL 30 May 22:03:25 22:08:35 65° 260° (W) 22:14:08 437.365/2234.400
AUBIESAT-1 30 May 22:03:40 22:06:55 52° 105° (ESE) 22:10:13 437.475
CUBEBUG 2 30 May 22:04:47 22:07:21 15° 65° (ENE) 22:10:06 437.445
CUBESAT XI-V 30 May 22:11:39 22:14:41 17° 294° (WNW) 22:17:32 437.345
HO-68 30 May 22:12:08 22:19:19 83° 74° (ENE) 22:26:32 435.675
DOVE 4 30 May 22:27:34 22:32:45 85° 255° (WSW) 22:38:08 437.250
ISS 30 May 22:39:22 22:40:49 13° 130° (SE) 22:42:24 145.825
FUNcube-1 30 May 22:42:05 22:45:28 21° 68° (ENE) 22:48:58 145.935
UWE-3 30 May 22:42:11 22:46:08 28° 70° (ENE) 22:50:06 435.000/436.395/437.385
HUMSAT D 30 May 22:48:30 22:49:27 11° 64° (ENE) 22:50:38 437.325/437.525
CANX-2 30 May 23:01:36 23:05:26 31° 264° (W) 23:09:13 2200.000
CUTE 1.7 + AOD 2 30 May 23:04:30 23:08:20 32° 264° (W) 23:12:09 437.475
Cosmos 2491 30 May 23:10:29 23:16:24 18° 300° (WNW) 23:21:54 435.465 / 435.565
CINEMA 3 30 May 23:13:55 23:18:52 59° 260° (W) 23:23:51 145.822/145.860
UKube-1 30 May 23:17:49 23:21:11 23° 68° (ENE) 23:24:38 .
AIST 1 30 May 23:19:59 23:22:27 14° 291° (WNW) 23:24:43
SEEDS 30 May 23:21:09 23:24:42 25° 266° (W) 23:28:12 437.485
ZACube-1 30 May 23:23:06 23:27:36 58° 75° (ENE) 23:32:06 437.345
GOMX 1 30 May 23:26:06 23:29:40 18° 272° (W) 23:33:07 467.674
Oscar 11 30 May 23:26:37 23:30:56 72° 259° (WSW) 23:35:16 145.826/435.025
COMPASS 1 30 May 23:27:52 23:31:26 26° 265° (W) 23:34:56 437.405
DX 1 30 May 23:31:53 23:35:49 35° 71° (ENE) 23:39:49 434.975-435.025
DELFI C3 30 May 23:36:10 23:40:11 76° 258° (WSW) 23:44:13 145.870
AAUSAT CUBESAT 2 30 May 23:36:40 23:40:07 24° 266° (W) 23:43:30 437.432
Cosmos 2504 30 May 23:38:23 23:45:08 44° 270° (W) 23:51:52 435.465 / 435.565
CUBEBUG 2 30 May 23:38:52 23:43:35 61° 259° (W) 23:48:18 437.445
GONETS M04 30 May 23:41:53 23:44:21 12° 54° (NE) 23:47:32
CUBEBUG 1 30 May 23:50:07 23:52:20 14° 65° (ENE) 23:54:45 437.445
UNISAT 6 30 May 23:57:36 23:59:30 13° 89° (E) 00:01:37 437.425
VELOX 1 31 May 00:01:32 00:05:34 36° 71° (ENE) 00:09:41 145.980
HO-68 31 May 00:03:21 00:07:59 17° 272° (W) 00:12:13 435.675
ISS 31 May 00:13:40 00:16:54 65° 325° (NW) 00:20:08 145.825
FUNcube-1 31 May 00:17:20 00:21:36 37° 263° (W) 00:25:49 145.935
UWE-3 31 May 00:18:29 00:22:36 29° 265° (W) 00:26:37 435.000/436.395/437.385
ESTCUBE 1 31 May 00:20:19 00:24:19 34° 71° (ENE) 00:28:24 437.505/2401.250
HUMSAT D 31 May 00:20:22 00:24:41 71° 259° (WSW) 00:28:59 437.325/437.525
50 SAT 31 May 00:20:28 00:24:25 63° 75° (ENE) 00:28:21 437.505
AISAT 31 May 00:34:11 00:38:39 86° 72° (ENE) 00:43:09 437.250
ANTELSAT 31 May 00:39:23 00:43:26 38° 97° (E) 00:47:27 437.575/2403.000
DANDE 31 May 00:40:48 00:47:18 32° 65° (ENE) 00:52:38 436.750
CUSAT 1 31 May 00:44:52 00:51:13 40° 69° (ENE) 00:56:11 437.405
QB50P1 31 May 00:45:19 00:48:24 20° 93° (E) 00:51:36 145.935-145.965
POLYITAN 1 31 May 00:49:26 00:52:46 22° 94° (E) 00:56:09 437.675
UKube-1 31 May 00:53:19 00:57:11 31° 264° (W) 01:01:01 .
PCSat 31 May 00:54:25 00:58:41 25° 108° (ESE) 01:03:06 145.827
ZACube-1 31 May 01:02:04 01:04:23 13° 271° (W) 01:06:27 437.345
DX 1 31 May 01:08:53 01:12:11 20° 267° (W) 01:15:23 434.975-435.025
TIGRISAT 31 May 01:10:05 01:14:27 85° 102° (ESE) 01:18:43 435.000
NANOSAT C BR1 31 May 01:14:25 01:18:28 41° 98° (E) 01:22:30 145.865
O/OREOS (USA 219) 31 May 01:16:18 01:18:31 14° 52° (NE) 01:20:55 437.305
CUBEBUG 1 31 May 01:24:00 01:28:16 55° 260° (W) 01:32:37 437.445
QB50P2 31 May 01:25:25 01:29:39 58° 100° (E) 01:33:50 145.880/145.840
VERMONT LUNAR 31 May 01:29:18 01:31:58 24° 153° (SSE) 01:34:39 437.305
UNISAT 6 31 May 01:32:29 01:36:43 51° 287° (WNW) 01:40:52 437.425
GONETS M04 31 May 01:34:50 01:43:33 63° 78° (ENE) 01:52:11
DUCHIFAT 1 31 May 01:35:06 01:39:22 72° 102° (ESE) 01:43:35 145.980
POPSAT HIP 1 31 May 01:36:35 01:40:53 77° 102° (ESE) 01:45:07 437.405
VELOX 1 31 May 01:38:55 01:42:16 20° 267° (W) 01:45:31 145.980
BUGSAT 1 31 May 01:39:40 01:43:52 55° 100° (E) 01:48:00 437.445
SPROUT 31 May 01:46:51 01:51:09 71° 76° (ENE) 01:55:30 437.525
SWISSCUBE 31 May 01:48:00 01:48:47 10° 61° (ENE) 01:49:51 437.505
ISS 31 May 01:51:43 01:53:49 16° 344° (NNW) 01:55:54 145.825
TISAT 1 31 May 01:54:07 01:58:18 62° 75° (ENE) 02:02:33 437.305
ESTCUBE 1 31 May 01:57:47 02:01:18 22° 267° (W) 02:04:42 437.505/2401.250
Cosmos 2499 31 May 02:04:28 02:08:07 15° 62° (ENE) 02:12:12 435.465 / 435.565
ANTELSAT 31 May 02:16:56 02:19:58 18° 293° (WNW) 02:22:51 437.575/2403.000
BEESAT 2 31 May 02:17:36 02:18:53 11° 39° (NE) 02:20:17 435.950
QB50P1 31 May 02:20:31 02:24:24 33° 289° (WNW) 02:28:12 145.935-145.965
DANDE 31 May 02:23:54 02:30:48 43° 271° (W) 02:36:07 436.750
POLYITAN 1 31 May 02:24:57 02:28:43 30° 290° (WNW) 02:32:23 437.675
CUSAT 1 31 May 02:28:04 02:33:34 28° 275° (W) 02:37:53 437.405
PCSat 31 May 02:36:42 02:41:52 45° 305° (NW) 02:47:05 145.827
PHONESAT 2.4 31 May 02:47:27 02:50:25 26° 153° (SSE) 02:53:25 2401.200-2431.200
NANOSAT C BR1 31 May 02:51:11 02:54:01 17° 293° (WNW) 02:56:41 145.865
O/OREOS (USA 219) 31 May 02:54:02 02:58:28 64° 250° (WSW) 03:02:52 437.305
BEESAT 3 31 May 02:59:19 03:02:54 29° 49° (NE) 03:06:29 437.485
QB50P2 31 May 03:03:06 03:05:05 13° 295° (WNW) 03:06:52 145.880/145.840
VERMONT LUNAR 31 May 03:05:40 03:08:54 77° 169° (S) 03:12:08 437.305
ITUPSAT 1 31 May 03:07:10 03:11:51 60° 73° (ENE) 03:16:34 437.325
Oscar 19 31 May 03:09:29 03:13:40 25° 94° (E) 03:17:56 437.125/150
BEESAT 31 May 03:12:05 03:16:49 69° 74° (ENE) 03:21:34 436.000
DUCHIFAT 1 31 May 03:13:42 03:14:39 10° 297° (WNW) 03:15:21 145.980
BUGSAT 1 31 May 03:16:43 03:18:54 14° 295° (WNW) 03:20:54 437.445
SWISSCUBE 31 May 03:21:15 03:26:00 87° 259° (W) 03:30:47 437.505
ISS 31 May 03:30:08 03:31:17 11° 4° (N) 03:32:26 145.825
GONETS M04 31 May 03:32:46 03:39:49 27° 277° (W) 03:46:31
TISAT 1 31 May 03:33:28 03:34:35 11° 272° (W) 03:35:26 437.305
ITAMSAT 1 31 May 03:34:39 03:36:27 12° 88° (E) 03:38:35 435.822/435.867
KKS-1 31 May 03:45:57 03:49:41 27° 69° (ENE) 03:53:30 437.445
BEESAT 2 31 May 03:53:32 03:57:40 86° 56° (NE) 04:01:42 435.950
Cosmos 2499 31 May 03:55:19 04:02:24 87° 264° (W) 04:09:41 435.465 / 435.565
SO-50 31 May 04:08:19 04:13:00 89° 291° (WNW) 04:17:53 436.795
AIST 2 31 May 04:10:30 04:14:27 37° 51° (NE) 04:18:20 435.215
PHONESAT 2.4 31 May 04:24:48 04:28:18 79° 169° (S) 04:31:47 2401.200-2431.200
Gurwin Techsat 1B 31 May 04:34:30 04:39:36 46° 98° (E) 04:44:42 435.225
BEESAT 3 31 May 04:37:25 04:40:48 25° 246° (WSW) 04:44:04 437.485
STARS 31 May 04:38:58 04:43:20 62° 75° (ENE) 04:47:46 437.465
VERMONT LUNAR 31 May 04:42:53 04:46:07 86° 5° (N) 04:49:20 437.305
ITUPSAT 1 31 May 04:47:44 04:50:13 14° 271° (W) 04:52:28 437.325
Oscar 19 31 May 04:48:24 04:53:09 37° 290° (WNW) 04:57:48 437.125/150
BEESAT 31 May 04:53:25 04:55:14 12° 272° (W) 04:56:45 436.000
ISS 31 May 05:05:55 05:08:36 23° 24° (NNE) 05:11:18 145.825
ITAMSAT 1 31 May 05:11:25 05:16:40 78° 284° (WNW) 05:21:53 435.822/435.867
KKS-1 31 May 05:22:24 05:26:17 28° 265° (W) 05:30:06 437.445
MOZHAYETS 4 31 May 05:45:07 05:49:22 39° 72° (ENE) 05:53:38
JAS-2 31 May 05:45:24 05:50:12 37° 97° (E) 05:55:17 435.910
AIST 2 31 May 05:49:38 05:52:48 20° 248° (WSW) 05:55:50 435.215
SO-50 31 May 05:51:30 05:54:20 15° 322° (NW) 05:57:04 436.795
Cosmos 2499 31 May 05:51:37 05:54:39 13° 279° (W) 05:57:12 435.465 / 435.565
PHONESAT 2.4 31 May 06:02:57 06:06:26 88° 2° (N) 06:09:55 2401.200-2431.200
HORYU 2 31 May 06:07:00 06:11:24 64° 101° (E) 06:15:47 437.375
AO-7 31 May 06:09:29 06:17:33 50° 101° (E) 06:25:38 29.400- 29.500
Gurwin Techsat 1B 31 May 06:15:10 06:19:19 23° 294° (WNW) 06:23:19 435.225
STARS 31 May 06:18:34 06:20:17 12° 271° (W) 06:21:44 437.465
VERMONT LUNAR 31 May 06:20:09 06:23:11 39° 201° (SSW) 06:26:11 437.305
ISS 31 May 06:42:01 06:45:13 52° 220° (SW) 06:48:23 145.825
ITAMSAT 1 31 May 06:54:45 06:55:24 10° 301° (WNW) 06:55:45 435.822/435.867
Cosmos 2491 31 May 07:20:34 07:28:55 46° 73° (ENE) 07:37:17 435.465 / 435.565
MOZHAYETS 4 31 May 07:23:28 07:26:47 19° 268° (W) 07:29:58
STRAND 1 31 May 07:25:28 07:28:46 18° 64° (ENE) 07:32:16 437.568
JAS-2 31 May 07:31:01 07:35:15 25° 293° (WNW) 07:39:31 435.910
CUBESAT XI-V 31 May 07:35:49 07:40:12 47° 73° (ENE) 07:44:40 437.345
PHONESAT 2.4 31 May 07:41:09 07:44:26 40° 202° (SSW) 07:47:41 2401.200-2431.200
HORYU 2 31 May 07:45:34 07:47:34 13° 296° (WNW) 07:49:21 437.375
AIST 1 31 May 07:50:02 07:51:25 12° 67° (ENE) 07:53:04
CUTE-I 31 May 07:56:40 08:00:57 25° 93° (E) 08:05:21 437.470
RS-15 31 May 08:01:06 08:05:30 14° 99° (E) 08:10:54 29.354- 29.394
AO-7 31 May 08:02:38 08:10:10 38° 299° (WNW) 08:17:35 29.400- 29.500
YUBILEINY 31 May 08:09:45 08:17:37 40° 88° (E) 08:25:36 435.215
Cubesat XI-IV 31 May 08:18:08 08:23:09 39° 97° (E) 08:28:11 437.490
PRISM 31 May 08:41:44 08:45:48 71° 258° (WSW) 08:49:54 437.425
M-CUBED/EXP-1 PRIME 31 May 08:46:44 08:50:50 75° 72° (ENE) 08:54:38 437.505
AUBIESAT-1 31 May 08:50:39 08:54:42 71° 71° (ENE) 08:58:26 437.475
STRAND 1 31 May 09:02:36 09:07:35 55° 259° (W) 09:12:37 437.568
CUBESAT XI-V 31 May 09:14:59 09:17:59 16° 270° (W) 09:20:47 437.345
Cosmos 2491 31 May 09:17:42 09:25:42 39° 273° (W) 09:33:29 435.465 / 435.565
AIST 1 31 May 09:25:15 09:29:36 61° 265° (W) 09:33:56
CUTE-I 31 May 09:36:10 09:41:12 41° 290° (WNW) 09:46:12 437.470
PCSat 31 May 09:42:18 09:46:19 21° 45° (NE) 09:50:27 145.827
HO-68 31 May 09:42:48 09:46:23 15° 87° (E) 09:50:25 435.675
GOMX 1 31 May 09:49:59 09:53:36 19° 89° (E) 09:57:14 467.674
Cubesat XI-IV 31 May 09:58:37 10:03:06 27° 293° (WNW) 10:07:29 437.490
RS-15 31 May 10:05:20 10:16:06 73° 117° (ESE) 10:27:11 29.354- 29.394
YUBILEINY 31 May 10:06:08 10:14:25 44° 287° (WNW) 10:22:36 435.215
BRITE-PL 31 May 10:09:15 10:14:39 48° 97° (E) 10:19:44 437.365/2234.400
Cosmos 2504 31 May 10:23:04 10:29:36 28° 86° (E) 10:36:01 435.465 / 435.565
DOVE 4 31 May 10:28:25 10:32:41 29° 93° (E) 10:36:47 437.250
CANX-2 31 May 10:46:59 10:51:01 44° 98° (E) 10:55:03 2200.000
CUTE 1.7 + AOD 2 31 May 10:49:50 10:53:51 42° 98° (E) 10:57:52 437.475
UNISAT 6 31 May 10:56:26 10:58:34 13° 65° (ENE) 11:00:54 437.425
SO-50 31 May 11:01:37 11:03:49 13° 35° (NE) 11:06:11 436.795
SEEDS 31 May 11:05:11 11:09:17 52° 99° (E) 11:13:21 437.485
CINEMA 3 31 May 11:10:12 11:14:25 35° 96° (E) 11:18:29 145.822/145.860
COMPASS 1 31 May 11:11:05 11:15:07 48° 99° (E) 11:19:09 437.405
ZACube-1 31 May 11:15:13 11:16:08 11° 87° (E) 11:17:19 437.345
Oscar 11 31 May 11:15:15 11:18:28 21° 93° (E) 11:21:46 145.826/435.025
DELFI C3 31 May 11:17:18 11:19:31 15° 91° (E) 11:21:53 145.870
AAUSAT CUBESAT 2 31 May 11:19:16 11:23:18 51° 99° (E) 11:27:21 437.432
PCSat 31 May 11:24:52 11:30:15 63° 245° (WSW) 11:35:35 145.827
GOMX 1 31 May 11:26:59 11:32:07 49° 288° (WNW) 11:36:52 467.674
HO-68 31 May 11:28:00 11:35:12 90° 304° (NW) 11:42:21 435.675
CUBEBUG 2 31 May 11:31:21 11:35:07 28° 94° (E) 11:38:50 437.445
ANTELSAT 31 May 11:37:35 11:41:47 35° 71° (ENE) 11:45:58 437.575/2403.000
QB50P1 31 May 11:38:22 11:40:47 15° 66° (ENE) 11:43:22 145.935-145.965
POLYITAN 1 31 May 11:42:34 11:45:20 17° 67° (ENE) 11:48:15 437.675
BRITE-PL 31 May 11:48:26 11:52:48 23° 295° (WNW) 11:56:51 437.365/2234.400
DOVE 4 31 May 12:06:02 12:10:25 30° 291° (WNW) 12:14:32 437.250
HUMSAT D 31 May 12:06:05 12:08:56 18° 92° (E) 12:11:53 437.325/437.525
FUNcube-1 31 May 12:06:19 12:10:22 42° 98° (E) 12:14:21 145.935
NANOSAT C BR1 31 May 12:06:31 12:10:14 30° 70° (ENE) 12:14:00 145.865
TIGRISAT 31 May 12:07:42 12:12:21 70° 75° (ENE) 12:16:57 435.000
UWE-3 31 May 12:08:36 12:12:54 60° 100° (E) 12:17:03 435.000/436.395/437.385
Cosmos 2504 31 May 12:14:35 12:22:39 56° 282° (WNW) 12:30:10 435.465 / 435.565
QB50P2 31 May 12:17:40 12:21:41 41° 72° (ENE) 12:25:46 145.880/145.840
RS-15 31 May 12:19:33 12:29:32 37° 323° (NW) 12:39:41 29.354- 29.394
CANX-2 31 May 12:24:02 12:26:38 16° 293° (WNW) 12:29:05 2200.000
AISAT 31 May 12:26:37 12:29:31 17° 91° (E) 12:32:34 437.250
DUCHIFAT 1 31 May 12:26:42 12:30:48 49° 73° (ENE) 12:34:58 145.980
CUTE 1.7 + AOD 2 31 May 12:26:47 12:29:28 16° 293° (WNW) 12:31:59 437.475
POPSAT HIP 1 31 May 12:28:34 12:32:44 53° 74° (ENE) 12:36:57 437.405
BUGSAT 1 31 May 12:29:10 12:32:57 35° 71° (ENE) 12:36:50 437.445
UNISAT 6 31 May 12:30:14 12:34:53 65° 258° (WSW) 12:39:29 437.425
SO-50 31 May 12:40:22 12:45:21 70° 57° (ENE) 12:50:14 436.795
UKube-1 31 May 12:40:51 12:45:00 43° 99° (E) 12:49:09 .
SEEDS 31 May 12:42:35 12:44:41 13° 294° (WNW) 12:46:37 437.485
GONETS M04 31 May 12:44:36 12:47:44 13° 77° (ENE) 12:51:36
CINEMA 3 31 May 12:47:50 12:51:25 22° 293° (WNW) 12:54:47 145.822/145.860
COMPASS 1 31 May 12:48:10 12:50:25 14° 294° (WNW) 12:52:32 437.405
ZACube-1 31 May 12:48:47 12:53:01 59° 286° (WNW) 12:57:08 437.345
Oscar 11 31 May 12:50:52 12:54:44 32° 289° (WNW) 12:58:32 145.826/435.025
DELFI C3 31 May 12:51:04 12:54:51 40° 287° (WNW) 12:58:36 145.870
DX 1 31 May 12:56:21 13:00:45 71° 102° (ESE) 13:05:07 434.975-435.025
AAUSAT CUBESAT 2 31 May 12:56:27 12:58:32 13° 294° (WNW) 13:00:25 437.432
CUBEBUG 2 31 May 13:08:09 13:11:44 24° 291° (WNW) 13:15:08 437.445
QB50P1 31 May 13:12:08 13:16:17 48° 261° (W) 13:20:28 145.935-145.965
CUBEBUG 1 31 May 13:13:41 13:17:30 28° 95° (E) 13:21:21 437.445
ANTELSAT 31 May 13:14:54 13:18:38 23° 267° (W) 13:22:15 437.575/2403.000
POLYITAN 1 31 May 13:16:51 13:20:57 42° 262° (W) 13:25:04 437.675
HO-68 31 May 13:17:27 13:22:06 18° 304° (WNW) 13:26:24 435.675
VELOX 1 31 May 13:28:30 13:33:00 80° 102° (ESE) 13:37:28 145.980
50 SAT 31 May 13:31:56 13:35:48 75° 284° (WNW) 13:39:38 437.505
SPROUT 31 May 13:35:56 13:37:52 13° 89° (E) 13:40:01 437.525
HUMSAT D 31 May 13:41:04 13:44:49 33° 289° (WNW) 13:48:29 437.325/437.525
TISAT 1 31 May 13:42:29 13:42:44 10° 88° (E) 13:43:16 437.305
NANOSAT C BR1 31 May 13:42:38 13:46:05 23° 266° (W) 13:49:28 145.865
FUNcube-1 31 May 13:43:38 13:46:23 16° 294° (WNW) 13:48:57 145.935
CUSAT 1 31 May 13:46:50 13:54:12 53° 92° (E) 14:02:16 437.405
UWE-3 31 May 13:47:03 13:48:56 12° 296° (WNW) 13:50:36 435.000/436.395/437.385
DANDE 31 May 13:47:34 13:54:31 43° 89° (E) 14:02:27 436.750
TIGRISAT 31 May 13:48:06 13:49:38 11° 272° (W) 13:50:52 435.000
ESTCUBE 1 31 May 13:49:38 13:54:12 82° 102° (ESE) 13:58:45 437.505/2401.250
QB50P2 31 May 13:54:57 13:57:49 17° 269° (W) 14:00:31 145.880/145.840
AISAT 31 May 14:02:06 14:06:21 42° 288° (WNW) 14:10:34 437.250
DUCHIFAT 1 31 May 14:04:37 14:06:57 14° 270° (W) 14:09:06 145.980
BUGSAT 1 31 May 14:05:33 14:08:34 19° 268° (W) 14:11:29 437.445
POPSAT HIP 1 31 May 14:06:54 14:09:00 13° 271° (W) 14:10:53 437.405
UKube-1 31 May 14:17:55 14:20:50 17° 294° (WNW) 14:23:36 .
SO-50 31 May 14:22:43 14:25:23 14° 251° (WSW) 14:27:47 436.795
Oscar 19 31 May 14:25:36 14:30:16 36° 69° (ENE) 14:35:01 437.125/150
GONETS M04 31 May 14:34:27 14:43:15 74° 94° (E) 14:52:05
DX 1 31 May 14:34:58 14:36:28 11° 297° (WNW) 14:37:45 434.975-435.025
RS-15 31 May 14:38:58 14:46:32 19° 356° (N) 14:54:16 29.354- 29.394
Cosmos 2499 31 May 14:43:33 14:46:06 12° 81° (E) 14:49:10 435.465 / 435.565
CUBEBUG 1 31 May 14:50:03 14:53:48 26° 291° (WNW) 14:57:26 437.445
ITAMSAT 1 31 May 14:51:29 14:54:57 19° 64° (ENE) 14:58:37 435.822/435.867
VELOX 1 31 May 15:08:00 15:08:59 10° 298° (WNW) 15:09:42 145.980
ITUPSAT 1 31 May 15:09:34 15:12:27 16° 91° (E) 15:15:33 437.325
SPROUT 31 May 15:10:07 15:14:21 52° 286° (WNW) 15:18:32 437.525
BEESAT 31 May 15:13:54 15:17:08 18° 92° (E) 15:20:31 436.000
TISAT 1 31 May 15:14:48 15:19:03 65° 285° (WNW) 15:23:14 437.305
AO-7 31 May 15:20:34 15:24:22 15° 48° (NE) 15:28:37 29.400- 29.500
SWISSCUBE 31 May 15:22:42 15:26:35 25° 94° (E) 15:30:33 437.505
O/OREOS (USA 219) 31 May 15:28:26 15:30:57 15° 101° (E) 15:33:41 437.305
ESTCUBE 1 31 May 15:29:31 15:30:29 10° 297° (WNW) 15:31:12 437.505/2401.250
CUSAT 1 31 May 15:30:07 15:37:15 36° 292° (WNW) 15:44:40 437.405
DANDE 31 May 15:30:28 15:37:46 44° 289° (WNW) 15:45:50 436.750
Gurwin Techsat 1B 31 May 15:54:57 16:00:12 69° 74° (ENE) 16:05:31 435.225
JAS-2 31 May 15:58:51 16:02:38 18° 65° (ENE) 16:06:26 435.910
Oscar 19 31 May 16:05:17 16:09:42 27° 266° (W) 16:14:03 437.125/150
ITAMSAT 1 31 May 16:29:02 16:34:05 54° 260° (W) 16:39:11 435.822/435.867
Cosmos 2499 31 May 16:30:19 16:38:21 79° 96° (E) 16:45:48 435.465 / 435.565
STARS 31 May 16:31:30 16:33:00 12° 89° (E) 16:34:46 437.465
GONETS M04 31 May 16:34:09 16:41:08 24° 296° (WNW) 16:47:46
ITUPSAT 1 31 May 16:46:03 16:50:43 51° 287° (WNW) 16:55:21 437.325
BEESAT 31 May 16:50:41 16:55:14 45° 289° (WNW) 16:59:46 436.000
RS-15 31 May 16:54:36 17:04:10 30° 30° (NNE) 17:14:19 29.354- 29.394
SWISSCUBE 31 May 17:00:11 17:04:30 34° 290° (WNW) 17:08:46 437.505
HORYU 2 31 May 17:04:31 17:08:53 55° 73° (ENE) 17:13:16 437.375
O/OREOS (USA 219) 31 May 17:05:39 17:10:02 48° 296° (WNW) 17:14:23 437.305
AO-7 31 May 17:07:36 17:15:44 64° 68° (ENE) 17:23:58 29.400- 29.500
KKS-1 31 May 17:13:17 17:17:43 58° 101° (E) 17:22:06 437.445
Gurwin Techsat 1B 31 May 17:37:53 17:40:48 14° 272° (W) 17:43:25 435.225
JAS-2 31 May 17:40:54 17:47:24 71° 258° (WSW) 17:53:10 435.910
BEESAT 2 31 May 17:47:46 17:50:33 18° 112° (ESE) 17:53:28 435.950
